www.pogodaiklimat.ru

Погода и климат >> Архив погоды >> Соломоновы Острова >> Манда


ПОГОДА в Манде

  • Прогноз погоды в Манде
  • Монитор погоды в Манде

АРХИВ ПОГОДЫ в Манде

Время (UTC), дата Ветер
(напр.,м/с)
 
Видим.   Явления Облачность Т
(С)
Тd
(С)
f
(%)
Тe
(С)
Тes
(С)
Комфортность P
(гПа)
Po
(гПа)
Тmin
(С)
Tmax
(С)
R
(мм)
R24
(мм)
S
(см)
09 19.03 штиль 0 20 км слаб. ливневой дождь 10/3 500 м
[Cu med, cong Ac As]
+27.2 +25.9 93 +41 +41 опасность
перегрева
1009.3 1008.6 0.4
12 19.03 штиль 0 20 км мгла 9/1 480 м
[Cu Sc Ac trans Cs]
+26.6 +25.2 92 +38 +38 очень
душно
1010.1 1009.4 0.4
15 19.03 штиль 0 20 км мгла 8/1 480 м
[Cu Sc Ac trans Cs]
+26.1 +25.0 94 +37 +37 очень
душно
1007.5 1006.8
18 19.03 штиль 0 20 км мгла 8/4 480 м
[Cu Sc Ac trans Cs]
+25.5 +24.8 96 +36 +36 очень
душно
1007.4 1006.7
21 19.03 штиль 0 20 км мгла 5/3 540 м
[Cb cap Ac trans Cs]
+27.9 +25.9 89 +42 +44 опасность
перегрева
1009.0 1008.3
00 20.03 штиль 0 20 км мгла 8/3 540 м
[Cu Sc Ac trans Cs]
+29.9 +25.3 76 +43 +55 опасность
перегрева
1010.1 1009.4 +25.0 0.4
03 20.03 штиль 0 20 км осадки на расстоянии 9/4 540 м
[Cb cap Ac trans]
+30.0 +25.2 76 +44 +46 опасность
перегрева
1007.5 1006.8
06 20.03 штиль 0 20 км мгла 9/3 540 м
[Cb cap Ac trans Ci ing]
+31.4 +25.3 70 +45 +47 опасность
перегрева
1007.1 1006.4
09 20.03 штиль 0 15 км осадки на расстоянии {ливн. осадки} 9/5 480 м
[Cb cap Ac trans]
+25.1 +24.4 96 +35 +35 очень
душно
1009.3 1008.6 0.8
12 20.03 штиль 0 20 км мгла 1/1 480 м
[Cu med, cong Ac trans Ci ing]
+24.6 +24.1 97 +34 +34 очень
душно
1009.9 1009.2 13
18 20.03 штиль 0 20 км мгла 3/1 450 м
[Cu med, cong Ac trans Ci sp]
+24.8 +24.4 98 +35 +35 очень
душно
1007.4 1006.7
21 20.03 штиль 0 20 км мгла 3/1 500 м
[Cb cap Ac trans Ci ing]
+26.9 +25.4 92 +39 +43 очень
душно
1005.3 1004.6
00 21.03 В 3 20 км мгла 4/3 540 м
[Cb cap Ac trans Ci ing]
+30.2 +24.7 72 +43 +54 опасность
перегрева
1009.7 1009.0 +24.6 13
03 21.03 В 2 20 км мгла 6/4 540 м
[Cb cap Ac trans Ci ing]
+31.0 +23.8 66 +43 +52 опасность
перегрева
1007.6 1006.9
06 21.03 штиль 0 20 км мгла 9/4 480 м
[Cu Sc Ac As]
+27.4 +24.8 86 +39 +40 очень
душно
1007.0 1006.3 3
09 21.03 штиль 0 20 км зарница 9/4 480 м
[Cb cap Ac As]
+26.2 +25.4 95 +38 +38 очень
душно
1008.7 1008.0
12 21.03 штиль 0 20 км мгла 9/3 480 м
[Cb cap Ac As]
+25.9 +25.1 95 +37 +37 очень
душно
1010.6 1009.9
15 21.03 штиль 0 25 км мгла 10/1 480 м
[Cu med, cong Ac trans Cs]
+26.0 +24.6 92 +37 +37 очень
душно
1008.6 1007.9
18 21.03 штиль 0 25 км мгла 8/1 480 м
[Cu med, cong Ac trans Cs]
+25.4 +24.8 96 +36 +36 очень
душно
1008.0 1007.3
21 21.03 штиль 0 25 км мгла 8/1 500 м
[Cu med, cong Ac trans Cs]
+26.4 +25.4 94 +38 +40 очень
душно
1009.7 1009.0
00 22.03 штиль 0 25 км мгла 6/1 540 м
[Cu med, cong Ac trans Cs]
+30.8 +25.4 73 +45 +61 опасность
перегрева
1010.3 1009.6 +25.4 3
03 22.03 С 3 20 км слаб. морось 8/6 480 м
[Cb cap Ac trans Cs]
+27.8 +25.2 86 +40 +45 очень
душно
1007.8 1007.1 0.0
06 22.03 штиль 0 12 км слаб. морось 9/5 480 м
[Cb cap Ac As]
+27.4 +26.1 93 +41 +42 опасность
перегрева
1007.1 1006.4 1
09 22.03 штиль 0 20 км мгла 5/3 480 м
[Cu Sc Ac trans Cs]
+26.7 +25.2 91 +38 +38 очень
душно
1009.3 1008.6 0.2
12 22.03 штиль 0 15 км слаб. морось 9/4 480 м
[Cb cap Ac As]
+26.0 +24.6 92 +37 +37 очень
душно
1010.7 1010.0 0.4
15 22.03 штиль 0 10 км в посл. час ливневой дождь 10/6 480 м
[Cb cap Ac As]
+25.0 +24.6 98 +35 +35 очень
душно
1008.4 1007.7 1
18 22.03 штиль 0 15 км мгла 10/4 480 м
[Cb cap Ac trans]
+24.6 +24.1 97 +34 +34 очень
душно
1008.1 1007.4 1
21 22.03 штиль 0 15 км мгла 10/3 480 м
[Cb cap Ac trans Cs]
+26.2 +25.3 95 +38 +38 очень
душно
1010.0 1009.3
00 23.03 штиль 0 15 км мгла 10/4 540 м
[Cb cap Ac trans Cs]
+30.0 +25.3 76 +44 +51 опасность
перегрева
1010.2 1009.5 +24.5 4
03 23.03 штиль 0 25 км мгла 10/3 540 м
[Cu Sc Ac As]
+28.1 +25.9 88 +42 +43 опасность
перегрева
1008.3 1007.6 6
06 23.03 штиль 0 25 км гроза без осадков {ливн. осадки} 9/4 500 м
[Cb cap Ac trans Cs]
+28.9 +26.2 85 +44 +45 опасность
перегрева
1007.9 1007.2 10
09 23.03 штиль 0 20 км мгла 10/4 480 м
[Cu Sc Ac As]
+26.5 +25.1 92 +38 +38 очень
душно
1009.8 1009.1 2
12 23.03 штиль 0 20 км мгла 10/4 480 м
[Cu Sc Ac As]
+25.0 +24.1 95 +34 +34 очень
душно
1010.9 1010.2 2
21 23.03 штиль 0 20 км мгла 10/1 480 м
[Cu med, cong Ac trans Cs]
+25.2 +24.4 95 +35 +35 очень
душно
1010.4 1009.7 2
00 24.03 штиль 0 20 км мгла 9/4 540 м
[Cu Sc Ac trans Cs]
+30.0 +25.2 76 +44 +52 опасность
перегрева
1011.0 1010.3 +24.5 14
03 24.03 штиль 0 10 км в посл. час ливневой дождь 10/6 540 м
[Cb cap Ac As]
+29.3 +25.1 78 +42 +42 опасность
перегрева
1009.1 1008.4 0.4
06 24.03 штиль 0 18 км мгла 10/4 540 м
[Cu Sc Ac As]
+28.0 +23.7 77 +38 +39 очень
душно
1008.6 1007.9 2
09 24.03 штиль 0 15 км мгла 10/3 500 м
[Cu Sc Ac As Cs]
+27.7 +23.6 78 +38 +38 очень
душно
1010.7 1010.0
12 24.03 штиль 0 15 км мгла 5/1 500 м
[Cb cap Ac trans Cs]
+26.0 +24.6 92 +37 +37 очень
душно
1011.4 1010.7
15 24.03 штиль 0 10 км осадки на расстоянии 9/5 480 м
[Cb cap Ac As]
+26.0 +24.7 93 +37 +37 очень
душно
1009.9 1009.2
18 24.03 штиль 0 20 км мгла 9/1 480 м
[Cu Sc Ac As]
+25.0 +23.8 93 +34 +34 очень
душно
1009.1 1008.4
21 24.03 штиль 0 25 км мгла 4/1 500 м
[Cu Sc Ci fib]
+27.2 +24.9 87 +39 +42 очень
душно
1010.2 1009.5
00 25.03 Ю 2 25 км мгла 4/4 540 м
[Cu Sc Ci fib]
+29.0 +25.8 83 +43 +55 опасность
перегрева
1010.9 1010.2 +24.3 2
03 25.03 С 2 15 км слаб. ливневой дождь, в посл. час гроза 10/4 540 м
[Cb cap Ac As]
+25.1 +24.1 94 +35 +35 очень
душно
1009.7 1009.0 6
06 25.03 штиль 0 25 км мгла 6/1 500 м
[Cu med, cong Ac trans Cs]
+28.1 +25.0 83 +40 +43 очень
душно
1008.5 1007.8 1
09 25.03 штиль 0 25 км мгла 3/1 480 м
[Cu med, cong Ci sp]
+26.0 +25.3 96 +38 +38 очень
душно
1010.5 1009.8
12 25.03 штиль 0 25 км мгла 3/1 480 м
[Cu med, cong Ci sp]
+25.0 +24.7 98 +35 +35 очень
душно
1011.6 1010.9
15 25.03 штиль 0 20 км мгла 1/1 480 м
[Cu med, cong]
+24.4 +23.6 95 +33 +33 очень
душно
1010.0 1009.3
18 25.03 штиль 0 20 км мгла 1/1 480 м
[Cu med, cong]
+24.0 +23.4 96 +32 +32 очень
душно
1009.8 1009.1
21 25.03 штиль 0 20 км мгла 6/1 480 м
[Cb cap Ac trans Ci ing]
+26.1 +25.6 97 +38 +40 очень
душно
1001.5 1000.8
00 26.03 штиль 0 20 км осадки на расстоянии 8/5 540 м
[Cb cap Ac trans Ci ing]
+31.1 +25.5 72 +45 +54 опасность
перегрева
1011.7 1011.0 +24.4 7
03 26.03 С 2 20 км осадки на расстоянии {ливн. осадки} 8/6
[Cb cap Ac trans Ci ing]
+28.2 +26.0 88 +42 +48 опасность
перегрева
1009.3 1008.6

 

Местоположение метеостанции Манда (Соломоновы Острова): широта -8.33 долгота 157.26 высота над уровнем моря 6 м.

В архиве по умолчанию представлена погода в Манде за последнюю неделю. Архивные данные за месяц целиком и за предыдущие месяцы, начиная с января 2011 года, Вы можете получить, выбрав интересующий диапазон дат из раскрывающегося списка и нажав кнопку "Ввод!".


*Определитесь, кто Вы:
робот инопланетянин человек

Внимание! Время в таблицах - всемирное. Для получения местного времени необходимо прибавить поправку, которая равна 11 ч.

Смотрите также архив погоды в соседних городах и на ближайших метеорологических станциях:

Погода на Острове Таро (Соломоновы Острова) (204 км)
Погода в Хониаре (Соломоновы Острова) (322 км)
Погода в Хониара аэропорту (Соломоновы Острова) (330 км)
Погода в Ауки (Соломоновы Острова) (385 км)
Погода на Мисиме (Папуа Новая Гвинея) (552 км)
Погода в Токуа (Папуа Новая Гвинея) (701 км)
Погода в Герни (Папуа Новая Гвинея) (792 км)
Погода в Кавиенге (Папуа Новая Гвинея) (959 км)
Погода на Островах Санта-Круз (Соломоновы Острова) (972 км)
Погода на Атолле Капингамаранги (Микронезия) (1083 км)

Пояснения к столбцам:

Ветер - указаны скорость ветра в м/с - средняя за 10 мин, порывы в срок и между сроками (в фигурных скобках) и направление, откуда дует ветер: С - северный, СВ - северо-восточный, В - восточный, ЮВ - юго-восточный, Ю - южный, ЮЗ - юго-западный, З - западный, СЗ - северо-западный.
Видимость - горизонтальная дальность видимости в метрах или километрах. При видимости от 1 до 10 км при отсутствии осадков обычно наблюдается дымка, при ухудшении видимости до 1 км и менее - туман. В сухую погоду видимость может ухудшаться дымом, пылью или мглою.
Явления - указаны атмосферные явления, наблюдавшиеся в срок или в последний час перед сроком; фигурными скобками обозначены явления, наблюдавшиеся между сроками (за 1-3 часа до срока); квадратными скобками обозначены град или гололедные отложения с указанием их диаметра в мм.
Облачность - указаны через наклонную черту общая и нижняя облачность в баллах и высота нижней границы облаков в метрах; квадратными скобками обозначены формы облаков: Ci - перистые, Cs - перисто-слоистые, Cc - перисто-кучевые, Ac - высококучевые, As - высокослоистые, Sc - слоисто-кучевые, Ns - слоисто-дождевые, Cu - кучевые, Cb - кучево-дождевые. Подробнее классификацию облаков см. в Атласе облаков (PDF).
T - Температура воздуха - температура, измеренная на высоте 2 м над землей.
Td - Температура точки росы - температура, при понижении до которой содержащийся в воздухе водяной пар достигнет насыщения.
f - Относительная влажность воздуха - влажноcть воздуха, измеренная на высоте 2 м над землей.
Te - Эффективная температура - температура, которую ощущает одетый по сезону человек в тени. Характеристика душности погоды. При расчете учитывается влияние влажности воздуха и скорости ветра на теплоощущения человека.
Tes - Эффективная температура на солнце - температура, которую ощущает человек, с поправкой на солнечный нагрев. Характеристика знойности погоды. Зависит от высоты солнца над горизонтом, облачности и скорости ветра. Ночью, в пасмурную погоду, а также при ветре 12 м/с и более поправка равна нулю.
P - Атмосферное давление - приведенное к уровню моря атмосферное давление.
Po - Атмосферное давление - измеренное на уровне метеостанции атмосферное давление.
Tmin - Минимальная температура - минимум температуры воздуха на высоте 2 м над землей.
Tmax - Максимальная температура - максимум температуры воздуха на высоте 2 м над землей.
R - Количество осадков - Количество выпавших осадков за период времени, мм. При наведении курсора мыши на число - период времени, за который выпало указанное количество осадков.
R24 - Количество осадков - Количество выпавших осадков за 24 часа, мм.
S - Снежный покров - Высота снежного покрова, см. При наведении курсора мыши на число - состояние снежного покрова и степень покрытия местности в баллах.